User: anonymous   Login
Location: ?
(35.2180°N, 139.6392°E)
Time: 20:21:20
(UTC+00:00)
Language:

Cosmos 1447 Rocket - Orbit

View from above orbital plane
View from above orbital plane
View from above satellite
View from above satellite

Ground track
Ground track

The orbit data is extracted from the following two-line orbital elements,

1 13917U 83021B   24284.61876024  .00000231  00000-0  21820-3 0  9991
2 13917  82.9424  61.0035 0027789 333.8857  36.8100 13.77029478 87097
Epoch (UTC): 10 October 2024 14:51:00
Eccentricity: 0.0027789
inclination: 82.9424°
perigee height: 954 km
apogee height: 995 km
right ascension of ascending node: 61.0035°
argument of perigee: 333.8857°
revolutions per day: 13.77029478
mean anomaly at epoch: 36.8100°
orbit number at epoch: 8709

The dashed part of the orbit path shows where the satellite is in the earth's shadow,  

DLR